Time,TemperatureF,DewpointF,PressureIn,WindDirection,WindDirectionDegrees,WindSpeedMPH,WindSpeedGustMPH,Humidity,HourlyPrecipIn,Conditions,Clouds,dailyrainin,SoftwareType,DateUTC
2013-09-02 00:00:00,71.0,65.9,29.94,NNW,342,0.0,0.0,84,0.00,,,0.28,Wunderground v.1.13,2013-09-02 04:00:00,
2013-09-02 00:30:00,71.2,66.5,29.93,NNW,342,0.0,0.0,85,0.00,,,0.00,Wunderground v.1.13,2013-09-02 04:30:00,
2013-09-02 01:00:00,72.0,65.8,29.93,NNW,342,0.0,0.0,81,0.00,,,0.00,Wunderground v.1.13,2013-09-02 05:00:00,
2013-09-02 01:30:00,72.8,66.3,29.92,NNW,342,0.0,0.0,80,0.00,,,0.00,Wunderground v.1.13,2013-09-02 05:30:00,
2013-09-02 02:00:00,72.9,66.4,29.93,NNW,341,0.0,0.0,80,0.00,,,0.00,Wunderground v.1.13,2013-09-02 06:00:00,
2013-09-02 02:30:00,72.7,66.9,29.93,NNW,342,0.0,0.0,82,0.00,,,0.00,Wunderground v.1.13,2013-09-02 06:30:00,
2013-09-02 03:00:00,72.4,66.9,29.93,NNW,342,0.0,0.0,83,0.00,,,0.00,Wunderground v.1.13,2013-09-02 07:00:00,
2013-09-02 03:30:00,72.2,66.7,29.92,NNW,342,0.0,0.0,83,0.00,,,0.00,Wunderground v.1.13,2013-09-02 07:30:00,
2013-09-02 04:00:00,72.0,66.6,29.91,NNW,342,0.0,0.0,83,0.00,,,0.00,Wunderground v.1.13,2013-09-02 08:00:00,
2013-09-02 04:30:00,71.3,67.2,29.90,NNW,342,0.0,0.0,87,0.00,,,0.00,Wunderground v.1.13,2013-09-02 08:30:00,
2013-09-02 05:00:00,71.5,68.7,29.90,NNW,342,0.0,0.0,91,0.00,,,0.00,Wunderground v.1.13,2013-09-02 09:00:00,
2013-09-02 05:30:00,70.8,68.4,29.91,NNW,342,0.0,0.0,92,0.00,,,0.00,Wunderground v.1.13,2013-09-02 09:30:00,
2013-09-02 06:00:00,70.9,69.1,29.91,NNW,342,0.0,0.0,94,0.00,,,0.00,Wunderground v.1.13,2013-09-02 10:00:00,
2013-09-02 06:30:00,70.7,68.6,29.91,NNW,342,0.0,0.0,93,0.00,,,0.00,Wunderground v.1.13,2013-09-02 10:30:00,
2013-09-02 07:00:00,70.3,68.8,29.93,NNW,342,0.0,0.0,95,0.00,,,0.00,Wunderground v.1.13,2013-09-02 11:00:00,
2013-09-02 07:30:00,69.8,68.9,29.93,NNW,341,0.0,0.0,97,0.00,,,0.00,Wunderground v.1.13,2013-09-02 11:30:00,
2013-09-02 08:00:00,69.9,68.7,29.95,NNW,342,0.0,0.0,96,0.00,,,0.00,Wunderground v.1.13,2013-09-02 12:00:00,
2013-09-02 08:30:00,69.2,68.3,29.96,NNW,342,0.0,0.0,97,0.00,,,0.00,Wunderground v.1.13,2013-09-02 12:30:00,
2013-09-02 09:00:00,68.3,67.4,29.96,NNW,342,0.0,0.0,97,0.00,,,0.00,Wunderground v.1.13,2013-09-02 13:00:00,
2013-09-02 09:30:00,67.9,67.0,29.97,NNW,341,0.0,0.0,97,0.00,,,0.00,Wunderground v.1.13,2013-09-02 13:30:00,
2013-09-02 10:00:00,67.8,66.9,29.98,NNW,342,0.0,0.0,97,0.00,,,0.00,Wunderground v.1.13,2013-09-02 14:00:00,
2013-09-02 10:30:00,67.7,66.8,29.99,NNW,342,0.0,0.0,97,0.00,,,0.00,Wunderground v.1.13,2013-09-02 14:30:00,
2013-09-02 11:00:00,68.1,66.9,29.99,NNW,343,0.0,0.0,96,0.00,,,0.00,Wunderground v.1.13,2013-09-02 15:00:00,
2013-09-02 11:30:00,67.4,66.5,29.98,NNW,343,0.0,0.0,97,0.00,,,0.00,Wunderground v.1.13,2013-09-02 15:30:00,
2013-09-02 12:00:00,67.1,66.2,29.98,NNW,342,0.0,0.0,97,0.00,,,0.00,Wunderground v.1.13,2013-09-02 16:00:00,
2013-09-02 12:30:00,68.1,67.2,29.98,NNW,343,0.0,0.0,97,0.00,,,0.00,Wunderground v.1.13,2013-09-02 16:30:00,
2013-09-02 13:00:00,69.6,68.1,29.98,NNW,343,0.0,0.0,95,0.00,,,0.00,Wunderground v.1.13,2013-09-02 17:00:00,
2013-09-02 13:30:00,69.2,67.7,29.97,NNW,343,0.0,0.0,95,0.00,,,0.01,Wunderground v.1.13,2013-09-02 17:30:00,
2013-09-02 14:00:00,68.6,67.1,29.96,NNW,342,0.0,0.0,95,0.00,,,0.01,Wunderground v.1.13,2013-09-02 18:00:00,
2013-09-02 14:30:00,69.5,68.0,29.96,NNW,342,0.0,0.0,95,0.00,,,0.01,Wunderground v.1.13,2013-09-02 18:30:00,
2013-09-02 15:00:00,70.2,68.1,29.95,NNW,342,0.0,0.0,93,0.00,,,0.01,Wunderground v.1.13,2013-09-02 19:00:00,
2013-09-02 15:30:00,71.0,69.2,29.93,NNW,342,0.0,0.0,94,0.00,,,0.01,Wunderground v.1.13,2013-09-02 19:30:00,
2013-09-02 16:00:00,73.3,70.2,29.93,NNW,342,0.0,0.0,90,0.00,,,0.01,Wunderground v.1.13,2013-09-02 20:00:00,
2013-09-02 16:30:00,74.1,70.6,29.92,NNW,342,0.0,0.0,89,0.00,,,0.01,Wunderground v.1.13,2013-09-02 20:30:00,
2013-09-02 17:00:00,73.9,69.4,29.91,NNW,342,0.0,0.0,86,0.00,,,0.01,Wunderground v.1.13,2013-09-02 21:00:00,
2013-09-02 17:30:00,73.5,70.1,29.91,NNW,342,0.0,0.0,89,0.00,,,0.01,Wunderground v.1.13,2013-09-02 21:30:00,
2013-09-02 18:00:00,72.9,70.1,29.90,NNW,342,0.0,0.0,91,0.00,,,0.01,Wunderground v.1.13,2013-09-02 22:00:00,
2013-09-02 18:30:00,72.7,69.6,29.91,NNW,342,0.0,0.0,90,0.00,,,0.01,Wunderground v.1.13,2013-09-02 22:30:00,
2013-09-02 19:00:00,72.2,69.4,29.91,NNW,342,0.0,0.0,91,0.00,,,0.01,Wunderground v.1.13,2013-09-02 23:00:00,
2013-09-02 19:30:00,72.0,69.2,29.91,NNW,342,0.0,0.0,91,0.00,,,0.01,Wunderground v.1.13,2013-09-02 23:30:00,
2013-09-02 20:00:00,71.5,69.4,29.91,NNW,340,0.0,0.0,93,0.00,,,0.01,Wunderground v.1.13,2013-09-03 00:00:00,
2013-09-02 20:30:00,71.0,69.2,29.93,NNW,341,0.0,0.0,94,0.00,,,0.01,Wunderground v.1.13,2013-09-03 00:30:00,
2013-09-02 21:00:00,70.9,69.4,29.93,NNW,340,0.0,0.0,95,0.00,,,0.01,Wunderground v.1.13,2013-09-03 01:00:00,
2013-09-02 21:30:00,70.7,69.5,29.94,NNW,340,0.0,0.0,96,0.00,,,0.01,Wunderground v.1.13,2013-09-03 01:30:00,
2013-09-02 22:00:00,70.2,69.0,29.94,NNW,341,0.0,0.0,96,0.00,,,0.01,Wunderground v.1.13,2013-09-03 02:00:00,
2013-09-02 22:30:00,69.9,68.4,29.93,NNW,342,0.0,0.0,95,0.00,,,0.01,Wunderground v.1.13,2013-09-03 02:30:00,
2013-09-02 23:00:00,69.9,68.4,29.93,NNW,342,0.0,0.0,95,0.00,,,0.01,Wunderground v.1.13,2013-09-03 03:00:00,
2013-09-02 23:30:00,69.6,68.1,29.92,NNW,342,0.0,0.0,95,0.00,,,0.01,Wunderground v.1.13,2013-09-03 03:30:00,